Location: Deneb Observatory
(47.2267°N, 100.4953°W)
Time: 11:48:26
(UTC-05:00)

Iridium 66 - Visible Passes

Search period start: 25 May 2016 00:00
Search period end: 04 June 2016 00:00
Orbit: 776 x 779 km, 86.4° (Epoch: 24 May)

Date Brightness Start Highest point End Pass type
(mag) Time Alt. Az. Time Alt. Az. Time Alt. Az.
25 May 8.0 00:01:17 10° NNW 00:05:24 24° W 00:09:30 10° SW visible
25 May 7.1 23:27:14 10° NNW 23:32:07 41° W 23:36:58 10° SSW visible
26 May 6.3 22:53:29 10° N 22:58:42 72° W 23:03:53 10° S visible
27 May 6.1 22:19:57 10° N 22:25:09 67° E 22:30:21 10° SSE visible
28 May 8.4 00:01:56 10° NW 00:05:18 18° WNW 00:08:39 10° WSW visible
28 May 7.7 23:27:36 10° NNW 23:32:05 30° W 23:36:32 10° SW visible
29 May 6.8 22:53:41 10° NNW 22:58:44 51° W 23:03:46 10° SSW visible
30 May 6.1 22:20:01 10° N 22:25:17 88° W 22:30:30 10° S visible
31 May 8.7 00:03:02 10° NW 00:05:09 12° WNW 00:07:16 10° W visible
31 May 8.3 23:28:06 10° NNW 23:32:00 22° WNW 23:35:53 10° SW visible
01 Jun 7.5 22:53:58 10° NNW 22:58:44 36° W 23:03:28 10° SSW visible
02 Jun 6.5 22:20:10 10° N 22:25:20 64° W 22:30:29 10° S visible
03 Jun 8.6 23:28:51 10° NW 23:31:52 16° WNW 23:34:53 10° WSW visible
